Location: Burbank
(38.7788°N, 114.0429°W)
Time: 20:45:17
(UTC+00:00)

Vanguard 2 Rocket - Pass Details

Date: 24 May 2026
Orbit: 553 x 3286 km, 32.9° (Epoch: 6 June)

Event Time Altitude Azimuth Distance (km) Brightness Sun altitude
Rises 16:30:44 0° 246° (WSW) 3,908 9.8 47.1°
Reaches altitude 10° 16:33:00 10° 242° (WSW) 3,208 9.5 47.6°
Maximum altitude 16:41:10 60° 164° (SSE) 2,018 9.7 49.1°
Drops below altitude 10° 16:55:40 10° 91° (E) 5,451 11.7 51.8°
Sets 17:00:47 0° 88° (E) 6,796 11.9 52.8°
